SHT21B EGJB-EGLL

Flight info

Callsign SHT21B
Flight time 0h 32m
Altitude 19000
Route ORIST1F ORIST L982 ROXOG ROXOG1H
Aircraft A319/M-SDE2E3FGHIRWXY/S

Departure

Time 2026-04-24 10:27
Airport Guernsey Airport (EGJB)

Arrival

Time 2026-04-24 11:00
Airport London Heathrow Airport (EGLL)
Time Latitude Longitude Altitude Speed Heading
2026-04-24 10:03 49.43254 -2.59684 355 ft 0 kts 177°
2026-04-24 10:20 49.43255 -2.59684 328 ft 0 kts 177°
2026-04-24 10:20 49.43267 -2.59685 325 ft 3 kts 176°
2026-04-24 10:20 49.43287 -2.59687 328 ft 3 kts 177°
2026-04-24 10:20 49.43308 -2.59688 328 ft 3 kts 181°
2026-04-24 10:21 49.43327 -2.59685 328 ft 3 kts 198°
2026-04-24 10:21 49.43343 -2.59674 324 ft 3 kts 214°
2026-04-24 10:21 49.43357 -2.59655 327 ft 3 kts 247°
2026-04-24 10:21 49.43362 -2.59626 326 ft 2 kts 266°
2026-04-24 10:22 49.43362 -2.59616 326 ft 0 kts 267°
2026-04-24 10:23 49.43361 -2.59632 330 ft 3 kts 267°
2026-04-24 10:24 49.43359 -2.59706 329 ft 10 kts 264°
2026-04-24 10:24 49.43345 -2.59832 325 ft 15 kts 267°
2026-04-24 10:24 49.43341 -2.59989 315 ft 15 kts 268°
2026-04-24 10:24 49.43336 -2.60169 302 ft 16 kts 268°
2026-04-24 10:25 49.43332 -2.60349 294 ft 20 kts 268°
2026-04-24 10:25 49.43326 -2.60570 295 ft 21 kts 268°
2026-04-24 10:25 49.43348 -2.60785 300 ft 20 kts 281°
2026-04-24 10:25 49.43365 -2.60964 312 ft 14 kts 270°
2026-04-24 10:26 49.43361 -2.61115 312 ft 14 kts 267°
2026-04-24 10:26 49.43360 -2.61236 313 ft 11 kts 278°
2026-04-24 10:26 49.43405 -2.61330 315 ft 11 kts 314°
2026-04-24 10:26 49.43467 -2.61334 315 ft 8 kts 73°
2026-04-24 10:27 49.43468 -2.61216 315 ft 37 kts 88°
2026-04-24 10:27 49.43494 -2.60357 312 ft 120 kts 87°
2026-04-24 10:27 49.43532 -2.58950 812 ft 131 kts 89°
2026-04-24 10:27 49.43568 -2.57560 1589 ft 133 kts 90°
2026-04-24 10:28 49.43610 -2.56040 1920 ft 153 kts 91°
2026-04-24 10:28 49.43648 -2.54297 2303 ft 174 kts 91°
2026-04-24 10:28 49.43693 -2.52323 2702 ft 195 kts 89°
2026-04-24 10:28 49.43901 -2.50224 3458 ft 205 kts 67°
2026-04-24 10:29 49.44924 -2.48650 4249 ft 221 kts 27°
2026-04-24 10:29 49.46420 -2.47963 5123 ft 227 kts 18°
2026-04-24 10:29 49.47974 -2.47380 5935 ft 233 kts 17°
2026-04-24 10:29 49.49609 -2.46782 6415 ft 256 kts 17°
2026-04-24 10:30 49.51423 -2.46113 6907 ft 278 kts 17°
2026-04-24 10:30 49.53336 -2.45405 7709 ft 286 kts 17°
2026-04-24 10:30 49.55288 -2.44680 8588 ft 291 kts 17°
2026-04-24 10:30 49.57279 -2.43933 9492 ft 295 kts 17°
2026-04-24 10:31 49.59288 -2.43172 10368 ft 301 kts 17°
2026-04-24 10:31 49.61404 -2.42359 10678 ft 325 kts 17°
2026-04-24 10:31 49.63670 -2.41484 11048 ft 344 kts 16°
2026-04-24 10:31 49.66014 -2.40583 11704 ft 351 kts 17°
2026-04-24 10:32 49.68371 -2.39533 12408 ft 354 kts 25°
2026-04-24 10:32 49.70540 -2.37736 13152 ft 355 kts 38°
2026-04-24 10:32 49.72373 -2.35189 13833 ft 356 kts 51°
2026-04-24 10:32 49.73983 -2.32251 14527 ft 359 kts 52°
2026-04-24 10:33 49.75599 -2.29283 15156 ft 363 kts 52°
2026-04-24 10:33 49.77214 -2.26322 15767 ft 367 kts 51°
2026-04-24 10:33 49.78877 -2.23290 16346 ft 373 kts 52°
2026-04-24 10:33 49.80568 -2.20207 16932 ft 378 kts 51°
2026-04-24 10:34 49.82276 -2.17094 17582 ft 381 kts 51°
2026-04-24 10:34 49.84001 -2.13940 18188 ft 386 kts 52°
2026-04-24 10:34 49.85740 -2.10751 18797 ft 389 kts 51°
2026-04-24 10:34 49.87499 -2.07527 19159 ft 393 kts 51°
2026-04-24 10:35 49.89264 -2.04290 19263 ft 394 kts 51°
2026-04-24 10:35 49.91045 -2.01023 19286 ft 398 kts 51°
2026-04-24 10:35 49.92829 -1.97749 19289 ft 397 kts 51°
2026-04-24 10:35 49.94612 -1.94466 19291 ft 399 kts 51°
2026-04-24 10:36 49.96398 -1.91169 19303 ft 399 kts 52°
2026-04-24 10:36 49.98194 -1.87866 19301 ft 402 kts 50°
2026-04-24 10:36 50.00224 -1.84881 19301 ft 402 kts 39°
2026-04-24 10:36 50.02569 -1.82494 19300 ft 405 kts 28°
2026-04-24 10:37 50.05084 -1.80511 19308 ft 406 kts 27°
2026-04-24 10:37 50.07612 -1.78512 19306 ft 409 kts 28°
2026-04-24 10:37 50.10144 -1.76496 19306 ft 408 kts 28°
2026-04-24 10:37 50.12602 -1.74296 19305 ft 408 kts 36°
2026-04-24 10:38 50.14825 -1.71559 19307 ft 406 kts 41°
2026-04-24 10:38 50.16987 -1.68738 19308 ft 407 kts 41°
2026-04-24 10:38 50.19163 -1.65910 19308 ft 407 kts 41°
2026-04-24 10:38 50.21340 -1.63088 19306 ft 408 kts 41°
2026-04-24 10:39 50.23523 -1.60258 19309 ft 408 kts 41°
2026-04-24 10:39 50.25784 -1.57587 19306 ft 408 kts 33°
2026-04-24 10:39 50.28300 -1.55520 19303 ft 409 kts 23°
2026-04-24 10:39 50.30996 -1.54083 19304 ft 410 kts 17°
2026-04-24 10:40 50.33721 -1.52767 19305 ft 410 kts 17°
2026-04-24 10:40 50.36446 -1.51448 19308 ft 410 kts 17°
2026-04-24 10:40 50.39172 -1.50119 19307 ft 410 kts 18°
2026-04-24 10:40 50.41894 -1.48787 19314 ft 410 kts 18°
2026-04-24 10:41 50.44599 -1.47453 19294 ft 401 kts 18°
2026-04-24 10:41 50.47228 -1.46149 18999 ft 393 kts 18°
2026-04-24 10:41 50.49786 -1.44875 18537 ft 390 kts 18°
2026-04-24 10:41 50.52360 -1.43595 18000 ft 386 kts 19°
2026-04-24 10:42 50.54838 -1.41994 17502 ft 381 kts 29°
2026-04-24 10:42 50.57149 -1.40014 17012 ft 376 kts 30°
2026-04-24 10:42 50.59436 -1.38054 16527 ft 371 kts 30°
2026-04-24 10:42 50.61703 -1.36112 16051 ft 367 kts 31°
2026-04-24 10:43 50.63935 -1.34192 15603 ft 363 kts 31°
2026-04-24 10:43 50.66124 -1.32311 15161 ft 358 kts 30°
2026-04-24 10:43 50.68305 -1.30435 14734 ft 354 kts 30°
2026-04-24 10:43 50.70455 -1.28584 14288 ft 350 kts 31°
2026-04-24 10:44 50.72581 -1.26749 13812 ft 347 kts 31°
2026-04-24 10:44 50.74686 -1.24929 13397 ft 343 kts 31°
2026-04-24 10:44 50.76767 -1.23094 13310 ft 342 kts 33°
2026-04-24 10:44 50.78686 -1.20905 13182 ft 337 kts 44°
2026-04-24 10:45 50.80427 -1.18447 12696 ft 335 kts 45°
2026-04-24 10:45 50.82144 -1.15981 12222 ft 332 kts 45°
2026-04-24 10:45 50.83837 -1.13528 11756 ft 328 kts 45°
2026-04-24 10:45 50.85497 -1.11109 11391 ft 325 kts 45°
2026-04-24 10:46 50.87160 -1.08683 11226 ft 323 kts 45°
2026-04-24 10:46 50.88804 -1.06282 10776 ft 320 kts 45°
2026-04-24 10:46 50.90432 -1.03902 10400 ft 317 kts 45°
2026-04-24 10:46 50.92037 -1.01558 10314 ft 307 kts 45°
2026-04-24 10:47 50.93563 -0.99336 10326 ft 290 kts 46°
2026-04-24 10:47 50.95039 -0.97181 10327 ft 285 kts 46°
2026-04-24 10:47 50.96494 -0.95046 10330 ft 284 kts 46°
2026-04-24 10:47 50.97939 -0.92929 10115 ft 282 kts 45°
2026-04-24 10:48 50.99378 -0.90823 9759 ft 280 kts 45°
2026-04-24 10:48 51.00806 -0.88728 9430 ft 279 kts 45°
2026-04-24 10:48 51.02226 -0.86640 9082 ft 277 kts 46°
2026-04-24 10:48 51.03637 -0.84560 8730 ft 276 kts 46°
2026-04-24 10:49 51.05032 -0.82503 8406 ft 275 kts 46°
2026-04-24 10:49 51.06427 -0.80445 8063 ft 273 kts 45°
2026-04-24 10:49 51.07818 -0.78394 7746 ft 272 kts 46°
2026-04-24 10:49 51.09213 -0.76374 7449 ft 271 kts 41°
2026-04-24 10:50 51.10921 -0.75097 7336 ft 277 kts 13°
2026-04-24 10:50 51.12860 -0.75249 7350 ft 285 kts 347°
2026-04-24 10:50 51.14752 -0.76291 7350 ft 288 kts 341°
2026-04-24 10:50 51.16626 -0.77439 7355 ft 287 kts 341°
2026-04-24 10:51 51.18490 -0.78593 7354 ft 287 kts 341°
2026-04-24 10:51 51.20349 -0.79751 7355 ft 288 kts 341°
2026-04-24 10:51 51.22189 -0.80901 7357 ft 288 kts 341°
2026-04-24 10:51 51.24045 -0.82063 7108 ft 286 kts 341°
2026-04-24 10:52 51.25893 -0.83221 6791 ft 284 kts 341°
2026-04-24 10:52 51.27744 -0.84309 6472 ft 282 kts 348°
2026-04-24 10:52 51.29665 -0.84640 6151 ft 277 kts
2026-04-24 10:52 51.31569 -0.84765 5960 ft 270 kts
2026-04-24 10:53 51.33415 -0.84875 5819 ft 261 kts
2026-04-24 10:53 51.35188 -0.84974 5687 ft 249 kts
2026-04-24 10:53 51.36914 -0.85066 5466 ft 242 kts
2026-04-24 10:53 51.38591 -0.85159 5133 ft 240 kts
2026-04-24 10:54 51.40254 -0.85249 4789 ft 238 kts
2026-04-24 10:54 51.41888 -0.85335 4523 ft 231 kts
2026-04-24 10:54 51.43472 -0.85374 4322 ft 221 kts
2026-04-24 10:54 51.44800 -0.84478 4164 ft 201 kts 46°
2026-04-24 10:55 51.45641 -0.82791 4045 ft 190 kts 59°
2026-04-24 10:55 51.46340 -0.81050 3909 ft 184 kts 60°
2026-04-24 10:55 51.46793 -0.79894 3831 ft 185 kts 61°
2026-04-24 10:55 51.47432 -0.78105 3673 ft 184 kts 72°
2026-04-24 10:56 51.47610 -0.76109 3487 ft 181 kts 90°
2026-04-24 10:56 51.47619 -0.74091 3245 ft 180 kts 91°
2026-04-24 10:56 51.47629 -0.72078 3010 ft 181 kts 90°
2026-04-24 10:56 51.47640 -0.70059 2773 ft 182 kts 91°
2026-04-24 10:57 51.47652 -0.68012 2535 ft 182 kts 91°
2026-04-24 10:57 51.47663 -0.66018 2284 ft 177 kts 91°
2026-04-24 10:57 51.47678 -0.63423 1954 ft 173 kts 90°
2026-04-24 10:57 51.47684 -0.62126 1791 ft 171 kts 90°
2026-04-24 10:58 51.47694 -0.60249 1552 ft 166 kts 90°
2026-04-24 10:58 51.47703 -0.58420 1327 ft 163 kts 89°
2026-04-24 10:58 51.47712 -0.56637 1102 ft 156 kts 89°
2026-04-24 10:58 51.47720 -0.54956 912 ft 143 kts 88°
2026-04-24 10:59 51.47727 -0.53456 729 ft 129 kts 89°
2026-04-24 10:59 51.47732 -0.52047 541 ft 123 kts 90°
2026-04-24 10:59 51.47741 -0.50673 405 ft 122 kts 89°
2026-04-24 10:59 51.47749 -0.49331 228 ft 120 kts 90°
2026-04-24 11:00 51.47753 -0.47990 97 ft 120 kts 90°
2026-04-24 11:00 51.47756 -0.46818 91 ft 83 kts 89°
2026-04-24 11:00 51.47754 -0.46232 89 ft 20 kts 109°
2026-04-24 11:00 51.47645 -0.46080 87 ft 15 kts 147°
2026-04-24 11:01 51.47594 -0.46167 86 ft 15 kts 270°
2026-04-24 11:01 51.47594 -0.46345 88 ft 17 kts 270°
2026-04-24 11:01 51.47593 -0.46529 86 ft 15 kts 269°
2026-04-24 11:01 51.47592 -0.46712 86 ft 18 kts 270°
2026-04-24 11:02 51.47583 -0.46921 89 ft 20 kts 269°
2026-04-24 11:02 51.47583 -0.47156 89 ft 22 kts 270°
2026-04-24 11:02 51.47581 -0.47419 88 ft 25 kts 270°
2026-04-24 11:02 51.47581 -0.47700 86 ft 24 kts 269°
2026-04-24 11:03 51.47580 -0.47939 86 ft 21 kts 270°
2026-04-24 11:03 51.47579 -0.48182 90 ft 23 kts 269°
2026-04-24 11:03 51.47577 -0.48437 86 ft 17 kts 265°
2026-04-24 11:03 51.47505 -0.48482 86 ft 11 kts 203°
2026-04-24 11:04 51.47487 -0.48599 88 ft 12 kts 269°
2026-04-24 11:04 51.47487 -0.48727 86 ft 11 kts 269°
2026-04-24 11:04 51.47487 -0.48853 86 ft 10 kts 272°
2026-04-24 11:04 51.47476 -0.48892 88 ft 3 kts 205°
2026-04-24 11:05 51.47448 -0.48892 86 ft 5 kts 178°
2026-04-24 11:05 51.47414 -0.48891 86 ft 5 kts 180°
2026-04-24 11:05 51.47403 -0.48891 86 ft 0 kts 179°